Regional Weather Roundup
Issued by NWS

Home | Current Version | Previous Version | Text Only | Print | Product List | Glossary Off
Versions: 1 2 3 4 5 6 7 8 9 10 11 12 13 14 15 16 17 18 19 20 21 22 23 24 25 26 27 28 29 30 31 32 33 34 35 36 37 38 39 40 41 42 43 44 45 46 47 48 49 50

509
ASUS45 KTFX 230610
RWRMT
MONTANA REGIONAL WEATHER ROUNDUP
NATIONAL WEATHER SERVICE GREAT FALLS MT
1200 AM MDT TUE MAY 23 2017

NOTE: "FAIR" INDICATES FEW OR NO CLOUDS BELOW 12000 FEET WITH NO
SIGNIFICANT WEATHER AND/OR OBSTRUCTIONS TO VISIBILITY.

MTZ001>007-043-230700-
WEST OF THE DIVIDE

CITY           SKY/WX    TMP DP  RH WIND       PRES   REMARKS
KALISPELL      CLEAR     50  47  89 CALM      30.12R
MISSOULA       CLEAR     53  40  61 CALM      30.16R
BUTTE          CLEAR     48  35  60 E6        30.28S
MULLAN PASS    CLEAR     54  35  48 NW6       30.27S
ANACONDA         N/A     48  39  71 SW7       30.25S
DEER LODGE       N/A     46  39  76 CALM      30.26S
EUREKA           N/A     54  43  66 CALM      30.09S
HAMILTON         N/A     54  43  66 CALM      30.17S
LIBBY            N/A     55  45  67 CALM      30.10S
PLAINS           N/A     55  45  69 CALM      30.13R
RONAN            N/A     52  43  71 CALM      30.17S
$$

MTZ008-052>055-230700-
SOUTHWEST MONTANA

CITY           SKY/WX    TMP DP  RH WIND       PRES   REMARKS
BOZEMAN        CLEAR     46  40  79 SE10      30.24S
DILLON         CLEAR     49  37  63 S7        30.25S
W YELLOWSTONE  CLEAR     36  32  87 CALM      30.32S
ENNIS          CLEAR     41  36  81 CALM      30.31S
THREE FORKS      N/A     50  41  71 CALM      30.20S
TWIN BRIDGES     N/A     55  35  46 NE5       30.20S
$$

MTZ009-010-012-014-046-048-049-054-230700-
EAST SLOPES AND CENTRAL MONTANA

CITY           SKY/WX    TMP DP  RH WIND       PRES   REMARKS
CUT BANK       CLEAR     52  35  52 S8        30.18F
GREAT FALLS    CLEAR     53  39  59 E7        30.20S
HELENA         CLEAR     53  44  71 CALM      30.20S
CHOTEAU          N/A     55  36  47 CALM      30.22S
CONRAD           N/A     49  46  89 CALM      30.20F
$$

MTZ011-013-016-021-045-047-050-051-230700-
NORTH CENTRAL MONTANA

CITY           SKY/WX    TMP DP  RH WIND       PRES   REMARKS
HAVRE          CLEAR     48  36  63 CALM      30.17F
LEWISTOWN      CLEAR     43  35  73 E7        30.23S
N BAR RANCH      N/A     41  32  70 W6        30.28S
CHINOOK          N/A     52  34  50 E5        30.19S
FORT BENTON      N/A    N/A N/A N/A MISG      30.19S
$$

MTZ017>020-022>027-061-062-230700-
NORTHEAST MONTANA

CITY           SKY/WX    TMP DP  RH WIND       PRES   REMARKS
GLASGOW        CLEAR     45  33  63 NE7       30.18R
JORDAN           N/A     42  35  76 W3        30.20R
SIDNEY         CLOUDY    53  35  50 N6        30.14
WOLF POINT     CLOUDY    47  34  60 W5        30.16S
MALTA          CLEAR     41  36  81 CALM      30.19S
PLENTYWOOD       N/A     54  34  47 N6        30.15R
POPLAR           N/A     55  34  44 NE6       30.15S
SCOBEY           N/A     45  30  55 MISG      30.15S
$$

MTZ028>42-056>058-230700-
SOUTHCENTRAL AND SOUTHEAST MONTANA

CITY           SKY/WX    TMP DP  RH WIND       PRES   REMARKS
BAKER          CLOUDY    50  38  63 W7        30.16R
BILLINGS       CLEAR     53  37  54 SW7       30.22S
LIVINGSTON     CLEAR     44  39  82 VRB3      30.25S
MILES CITY     CLEAR     46  38  73 W9        30.18S
BIG TIMBER     CLEAR     43  39  87 W7        30.27S
EKALAKA          N/A     45  38  76 NW2       30.14R
FORSYTH          N/A     50  37  62 CALM      30.20R
LAUREL           N/A     48  31  52 CALM      30.19F
ROUNDUP          N/A     50  31  48 W3        30.13R
$$

REGIONAL REPORTS...DAKOTAS

CITY           SKY/WX    TMP DP  RH WIND       PRES   REMARKS
WILLISTON      CLEAR     50  35  56 E3        30.15R
MINOT          CLOUDY    49  38  65 NW7       30.09S
DICKINSON      CLOUDY    49  34  56 NE8       30.11R
BEACH          CLOUDY    50  37  62 N7        30.17S
TIOGA            N/A     41  32  70 CALM      30.17R
WATFORD CITY     N/A     45  34  65 E3        30.14S
BISMARCK       CLOUDY    52  39  61 N7        30.08R
GRAND FORKS    CLOUDY    49  47  93 N13       29.94R
FARGO          CLOUDY    49  47  93 N13       29.91R
BUFFALO SD       N/A     51  42  71 NW13      30.07S
RAPID CITY     MOCLDY    44  38  79 NW9       30.13S
$$

REGIONAL REPORTS...WYOMING/IDAHO/WASHINGTON

CITY           SKY/WX    TMP DP  RH WIND       PRES   REMARKS
GILLETTE       CLOUDY    46  42  86 W8        30.22R
SHERIDAN       PTCLDY    40  35  83 CALM      30.23F
BUFFALO WY     CLOUDY    44  36  73 W3        30.26S
CODY           CLEAR     42  36  79 S6        30.28S
YELLOWSTONE LA   N/A     30  29  96 CALM      30.37S
IDAHO FALLS    CLEAR     50  41  71 NE6       30.22S
SALMON         CLEAR     54  39  58 S5        30.16S
BOISE          CLEAR     62  39  42 SE5       30.10S
SPOKANE        PTCLDY    64  48  56 SW6       30.10F
$$

REGIONAL REPORTS...ALBERTA

CITY           SKY/WX    TMP DP  RH WIND       PRES   REMARKS
EDMONTON       CLEAR     66  43  42 S7        29.96F
CALGARY        PTCLDY    61  37  41 S13       30.08S
LETHBRIDGE     CLEAR     54  37  54 S10       30.12S
MEDICINE HAT   CLEAR     52  37  58 S5        30.12S
WATERTON GATE    N/A     52  36  54 S10         N/A
CARDSTON         N/A     55  39  54 S5          N/A
MILK RIVER       N/A     50  37  62 S5          N/A
$$

REGIONAL REPORTS...SASKATCHEWAN

CITY           SKY/WX    TMP DP  RH WIND       PRES   REMARKS
SWIFT CURRENT  CLEAR     46  30  53 S8        30.17S
REGINA         CLEAR     50  30  46 N6        30.14S
SASKATOON      CLEAR     54  34  47 S5        30.13F
CYPRESS HILLS    N/A     48  28  46 SE6         N/A
VAL MARIE        N/A     37  27  65 CALM        N/A
ROCKGLEN         N/A     48  30  49 NW5         N/A
$$




USA.gov is the U.S. government's official web portal to all federal, state and local government web resources and services.